GFSNE_sfc_temp_090.txt.gz
Temp
47 47 50 48 48 48 49 51 50 47 48 44 44 45 46 46 47 46 44 52 53 54 54 54 54 54 54 54 55 56 57 58 59 61 63 64 64 66
46 46 46 46 46 46 46 47 49 48 47 45 43 44 44 47 47 45 45 46 51 53 52 52 52 52 52 52 52 53 55 56 57 59 64 64 65 65
44 44 44 45 44 44 44 46 47 47 45 41 42 43 42 43 44 43 43 40 39 51 51 51 51 51 51 50 50 51 53 54 55 56 61 64 65 64
42 43 44 47 45 45 44 44 44 44 44 42 40 39 40 42 42 41 42 41 38 47 49 49 50 50 49 49 49 49 50 52 52 53 55 59 63 63
39 40 41 44 43 42 42 41 42 43 43 42 39 41 40 40 38 38 37 36 40 43 45 46 47 48 47 47 47 47 48 50 51 51 51 53 55 58
38 38 41 41 41 40 39 39 40 40 41 41 40 38 38 37 37 35 33 33 34 37 39 40 42 43 45 45 45 45 46 48 49 50 50 50 51 53
41 41 41 42 43 42 40 38 38 38 38 38 37 36 35 34 33 32 31 31 30 29 31 31 32 32 33 37 41 44 45 46 47 48 49 49 50 50
38 38 39 40 42 45 45 44 41 36 34 31 34 35 31 30 31 31 26 28 26 28 29 30 31 30 31 33 44 45 45 45 46 46 47 47 48 48
36 36 37 39 36 33 40 39 40 42 40 34 33 31 32 32 30 28 29 27 27 29 29 28 29 29 30 33 43 44 44 44 45 45 45 46 46 47
35 36 36 32 32 33 31 30 30 31 32 35 33 32 32 31 32 31 29 28 29 30 28 24 27 28 29 30 41 42 43 43 44 44 44 44 44 45
36 36 34 31 37 41 31 30 29 32 40 40 40 40 39 39 35 31 29 28 26 27 28 27 25 25 27 28 30 39 40 40 41 41 42 42 41 40
33 32 40 34 40 41 30 29 29 29 31 32 31 32 34 37 38 32 29 22 23 23 27 24 24 23 21 27 27 28 29 37 37 38 38 40 41 32
30 29 31 41 42 42 39 30 31 32 34 31 30 30 30 30 30 30 30 24 21 20 29 23 15 21 20 22 25 26 26 28 29 29 34 38 38 37
30 29 30 40 42 42 39 38 39 37 29 29 28 27 28 28 27 29 30 28 28 25 30 25 21 21 19 18 21 25 24 24 24 26 25 30 34 35
31 33 37 39 41 40 41 40 40 30 29 27 27 26 27 26 26 25 26 26 23 28 30 27 25 23 22 18 21 22 22 23 22 18 23 24 23 24
37 32 36 37 38 35 35 36 31 30 28 26 25 26 25 22 23 24 21 20 20 22 27 24 22 23 21 21 21 19 20 18 20 20 23 22 25 25
32 30 29 28 28 28 29 29 29 29 27 25 23 23 26 25 25 23 20 16 16 16 19 24 26 24 23 22 19 21 22 19 20 20 21 18 21 23
34 29 27 27 27 28 28 28 28 29 25 25 23 23 24 25 24 21 17 16 15 16 16 19 20 21 22 25 28 21 19 18 18 19 20 18 17 22
34 31 30 28 28 28 28 26 26 26 24 24 23 23 23 23 27 21 19 19 18 18 17 15 14 13 13 18 26 32 17 18 15 18 20 19 18 23
34 31 29 30 29 28 28 27 26 22 23 24 23 23 22 22 20 23 22 21 21 21 20 18 17 15 18 19 20 25 31 17 16 14 13 21 25 31
33 31 32 31 29 28 28 27 26 25 22 23 25 25 24 23 24 23 23 27 25 22 21 22 22 27 16 18 18 22 26 32 27 17 11 14 20 22
33 32 32 31 30 28 27 27 26 27 25 24 24 25 24 23 23 23 23 22 23 24 22 20 17 13 11 17 19 22 24 27 31 33 32 28 17 16
33 32 31 31 30 30 28 28 28 27 27 28 27 26 25 23 25 25 24 23 23 21 20 19 20 20 16 16 20 20 22 23 24 23 25 31 32 33

GFSNE_sfc_temp_096.txt.gz
Temp
59 59 59 60 59 59 58 57 54 51 55 60 56 54 52 52 50 51 49 51 53 54 54 54 54 54 54 54 54 54 55 56 57 59 59 62 63 64
58 57 58 59 59 58 57 56 54 51 48 56 54 54 52 50 49 50 48 48 52 53 52 52 52 52 52 51 52 52 53 54 56 57 59 63 64 64
55 56 55 56 55 54 53 54 54 54 49 53 48 47 47 47 46 47 47 46 47 50 51 51 51 50 50 50 50 51 52 53 54 55 57 62 64 65
53 54 54 54 54 55 55 54 53 53 48 46 45 43 44 45 45 42 44 45 47 48 49 50 50 49 48 48 48 49 50 51 52 52 53 57 63 64
54 54 55 54 54 54 53 51 50 50 50 47 45 45 43 43 41 41 41 41 44 44 46 46 48 47 47 47 47 47 48 50 51 51 51 53 56 61
52 52 52 52 52 51 49 48 47 46 46 46 45 42 42 40 40 38 37 39 40 45 43 44 44 43 45 46 46 46 47 48 50 50 50 50 51 54
51 51 50 48 45 48 49 49 48 45 44 43 41 40 38 37 37 38 38 39 44 45 44 44 45 45 45 46 46 46 46 47 48 49 49 49 50 51
48 49 48 45 46 46 45 44 46 46 43 41 40 38 39 39 38 38 42 41 40 43 40 40 42 42 43 44 44 45 46 46 47 47 48 48 49 49
47 46 45 46 44 46 43 42 42 42 43 44 41 40 39 40 42 41 42 41 41 39 40 40 41 40 43 44 44 44 45 45 45 46 46 47 47 48
45 46 45 43 42 44 45 43 43 44 44 45 46 48 47 46 45 43 41 41 40 40 40 37 39 39 41 42 41 43 43 44 44 44 44 44 44 46
46 45 44 42 42 42 42 40 42 42 42 41 41 41 41 41 44 42 38 37 37 38 39 39 37 37 39 39 41 40 40 41 41 42 43 42 41 42
44 42 41 41 42 43 43 42 40 42 41 41 41 41 42 41 39 42 40 35 36 35 38 36 35 35 34 37 38 40 41 38 38 39 40 41 41 44
43 40 40 42 42 43 42 43 42 43 40 41 41 41 41 40 40 41 40 36 34 34 37 36 32 34 33 34 35 37 37 39 39 39 38 38 39 40
43 45 45 41 42 43 43 42 40 40 42 40 39 39 38 37 37 37 37 37 37 34 37 33 32 33 32 33 34 35 35 36 36 36 36 36 36 37
44 44 42 41 42 43 43 41 41 40 39 38 37 36 37 37 34 33 33 33 32 34 33 32 33 31 32 31 32 33 33 34 34 33 34 35 36 36
41 40 40 41 42 43 43 41 42 41 39 38 38 38 36 34 34 35 33 33 33 32 32 32 32 31 31 32 32 32 34 31 32 33 33 34 35 36
38 37 38 38 39 40 40 41 40 39 37 38 36 35 35 34 34 34 33 32 31 32 32 32 33 33 33 31 30 33 33 33 33 32 31 31 34 35
35 35 35 37 38 38 38 37 37 36 36 36 35 35 33 33 32 32 32 31 31 32 32 32 32 31 31 33 33 32 34 33 34 32 31 29 31 36
35 35 36 37 37 37 37 37 35 34 34 33 33 33 33 33 32 32 31 31 31 32 32 32 31 30 28 28 34 34 31 33 32 32 32 32 31 33
36 35 36 38 37 37 36 35 35 34 33 33 32 32 32 32 31 32 32 31 31 32 31 31 29 30 28 29 30 33 33 31 31 32 32 34 34 36
36 37 38 38 37 37 37 36 35 34 33 32 32 32 32 32 31 32 32 33 32 31 29 30 31 34 32 29 26 30 33 33 33 31 31 29 30 32
36 37 38 37 36 36 35 35 33 33 33 32 32 32 32 32 31 32 32 32 32 32 31 33 31 31 27 26 27 30 32 34 34 33 33 32 29 27
36 35 36 36 35 35 35 34 33 33 33 33 32 32 32 31 32 33 33 33 33 32 32 31 30 29 28 28 27 28 28 29 30 30 32 35 34 34

GFSNE_sfc_temp_099.txt.gz
Temp
59 58 58 59 59 59 58 58 54 50 53 55 53 53 52 52 49 51 50 52 54 54 54 54 54 54 53 53 53 54 55 55 56 58 59 60 62 64
58 58 58 58 58 58 56 56 55 52 49 53 52 52 51 51 49 50 48 49 52 53 52 52 52 52 51 51 51 52 52 53 55 56 57 59 62 64
56 57 56 58 56 56 55 54 53 53 48 51 49 48 48 48 47 47 46 46 48 51 51 51 51 50 50 50 50 50 51 52 53 55 55 57 63 64
53 53 54 55 53 53 53 53 53 52 48 47 46 44 44 45 45 43 44 46 45 47 49 50 49 49 48 48 48 49 49 50 52 52 53 54 60 64
54 53 53 54 52 53 51 49 49 50 49 47 44 45 44 43 41 41 41 41 44 43 46 47 48 47 47 47 47 47 48 49 50 51 51 52 55 61
52 52 53 52 51 51 50 48 48 46 47 45 45 43 42 41 41 38 37 39 39 44 43 44 44 44 45 46 47 46 47 48 49 50 50 50 51 54
52 52 51 50 46 48 50 49 47 45 45 43 42 40 38 37 37 38 37 37 39 41 40 40 39 41 42 45 45 46 47 47 48 49 49 49 49 50
49 49 48 45 45 46 46 45 45 45 43 42 40 38 38 38 38 37 36 36 36 39 36 36 37 37 39 40 45 45 46 47 47 48 48 48 49 49
48 47 47 47 46 45 45 44 43 43 42 43 41 40 39 39 37 37 38 37 36 35 35 34 36 36 38 42 43 45 45 46 46 46 46 47 48 48
46 47 46 45 44 45 45 40 42 42 43 44 43 45 45 43 42 40 38 37 35 35 35 30 34 34 36 37 42 43 43 43 44 44 44 43 45 47
47 47 47 45 45 44 43 37 40 41 42 42 42 42 43 44 43 37 33 32 31 33 34 33 32 32 34 35 36 41 41 41 42 41 42 42 43 45
47 45 45 44 44 43 41 39 36 38 38 37 37 38 40 40 41 38 34 31 32 30 33 30 29 30 27 33 35 35 36 39 39 40 41 41 42 38
41 41 42 43 43 44 43 41 39 41 40 37 36 36 36 36 35 35 35 32 30 30 34 31 28 29 29 29 30 31 32 34 33 35 39 39 39 38
41 43 43 43 43 43 43 43 42 42 37 36 35 34 33 32 32 32 33 33 32 32 33 30 27 27 27 28 28 29 29 29 29 30 30 36 38 39
43 43 44 43 43 42 43 42 41 36 35 33 32 31 32 32 31 30 30 30 28 30 31 26 27 25 25 24 26 27 26 28 28 27 28 28 29 30
42 39 41 41 42 41 40 40 36 37 35 33 32 32 32 31 30 31 28 28 27 26 30 26 25 24 24 25 25 24 27 23 26 26 27 28 30 31
39 37 36 36 35 36 37 37 37 36 34 33 31 31 31 31 30 31 29 28 26 26 26 26 29 28 26 23 22 25 25 25 26 26 25 24 27 28
36 34 34 34 34 35 36 36 35 36 34 33 32 32 31 31 30 30 29 28 26 26 26 26 24 24 25 28 32 24 25 25 26 26 26 21 23 29
35 34 34 34 34 35 35 34 34 34 31 32 32 32 32 31 31 30 29 28 27 26 26 27 24 22 20 20 26 35 23 25 25 24 25 24 23 27
36 34 34 34 35 35 35 34 34 32 32 32 31 32 31 31 30 30 30 28 28 27 26 26 23 24 21 21 22 25 34 23 24 23 24 26 30 37
36 35 34 34 34 35 35 34 33 33 32 31 31 31 31 31 30 30 30 32 31 28 26 27 28 34 24 22 19 23 26 34 31 23 22 24 24 25
35 35 35 35 35 35 35 34 33 34 33 32 31 31 32 31 30 30 31 29 30 29 27 25 26 25 20 19 19 21 25 27 32 34 34 32 25 23
36 36 36 36 35 35 34 34 33 33 33 33 32 32 32 30 31 31 31 30 30 29 29 27 25 24 27 26 26 20 21 23 24 24 28 35 35 34

GFSNE_sfc_temp_105.txt.gz
Temp
55 54 54 55 54 54 54 53 50 46 46 46 45 46 45 45 48 47 47 52 55 55 54 54 53 53 52 52 52 53 53 54 55 56 57 59 59 60
55 54 53 53 53 52 52 51 50 49 45 47 45 45 46 47 48 45 46 50 53 53 53 52 52 51 51 51 51 51 52 53 54 55 56 58 58 58
54 54 52 52 50 50 50 50 49 49 45 44 44 44 44 43 43 43 45 44 47 52 52 51 50 50 50 50 50 50 50 51 52 53 54 56 56 58
53 52 50 52 50 51 49 48 48 47 47 44 44 42 44 45 44 43 44 46 45 49 49 50 49 49 48 49 49 48 49 49 51 51 53 54 54 58
52 51 51 49 48 47 46 46 45 46 45 44 42 43 43 42 41 41 41 42 45 46 47 48 48 47 48 48 48 47 48 49 50 50 51 51 52 58
51 51 51 50 48 46 45 44 44 42 42 42 42 42 41 41 41 38 37 39 39 44 46 45 46 46 46 47 46 46 47 48 49 50 50 50 50 54
50 50 50 50 49 48 46 43 43 41 39 37 38 40 38 37 36 37 37 37 38 39 39 38 36 33 35 40 42 45 47 47 48 48 49 49 50 51
47 47 47 47 48 50 49 48 46 41 39 39 38 39 38 38 38 36 35 34 33 36 31 31 31 30 32 34 45 46 46 46 46 46 47 48 49 51
46 45 44 45 45 44 47 47 46 48 46 41 40 39 39 39 37 35 35 35 35 33 30 28 29 29 31 37 43 45 44 45 45 45 45 47 48 50
44 44 43 42 42 41 40 36 37 38 40 40 38 42 42 39 39 38 37 34 32 31 30 24 27 28 30 31 43 43 43 43 43 44 44 46 46 48
43 43 43 41 44 45 38 34 34 35 43 43 42 43 45 45 42 36 31 28 25 28 28 28 26 26 28 29 31 41 41 41 42 43 43 44 44 44
43 42 45 42 45 46 39 35 32 32 34 33 34 38 40 41 44 35 31 25 23 23 28 25 23 24 21 27 29 30 30 39 41 41 42 43 42 35
41 41 42 46 46 46 44 37 35 34 36 31 30 30 30 30 30 31 31 25 19 19 29 25 15 21 21 22 24 26 29 30 30 32 38 40 41 39
41 43 42 45 45 46 45 42 43 41 32 30 29 28 28 27 26 27 29 29 27 27 30 22 17 18 14 16 22 24 23 25 26 29 29 35 38 40
43 42 42 43 44 43 44 44 44 35 33 31 30 28 26 26 26 27 26 25 24 27 28 28 18 13 15 14 18 20 20 23 24 23 25 27 26 27
43 40 41 41 42 41 39 41 36 35 34 33 31 28 27 26 24 24 18 17 21 26 26 20 19 20 17 17 19 18 19 19 20 22 24 25 28 29
39 36 36 37 35 35 34 36 34 33 32 31 29 28 28 28 26 23 19 18 18 22 20 26 28 27 24 22 18 18 20 20 19 20 22 20 24 25
36 34 34 34 34 33 33 32 32 33 32 31 30 30 28 27 26 24 20 19 18 19 20 23 24 24 25 27 28 19 19 19 19 22 22 15 18 25
37 36 33 33 32 33 33 32 32 32 33 32 31 29 28 27 29 28 26 21 23 23 21 22 20 23 21 21 26 33 19 18 19 21 21 20 16 23
37 35 33 33 32 32 32 32 32 32 32 32 31 29 28 27 27 27 26 26 25 25 23 21 20 20 23 24 23 21 33 19 19 18 18 22 26 34
36 35 34 33 32 32 32 32 32 32 33 32 31 30 29 28 28 28 27 30 28 26 26 26 27 32 21 23 21 22 25 33 28 19 15 17 19 22
34 33 33 32 32 32 32 32 32 32 32 31 31 30 30 30 29 28 28 28 29 28 28 24 25 24 21 26 24 21 23 26 32 34 32 29 18 13
33 33 32 32 32 32 32 32 32 32 32 31 31 31 30 29 30 29 28 29 29 28 28 25 25 25 26 26 24 21 21 21 22 23 25 35 35 34